| time (UTC) | temp F | wind direction | speed knots | gust knots | rain 1hr in | rain 24hr in | rain mn in | humidity % | barometer mb |
| 20260506170918 | 72 | 122 | 0.9 | 1.7 | 0.00 | 0.00 | 0.00 | 75 | 1014.1 |
| 20260506170413 | 71 | 112 | 0.0 | 0.9 | 0.00 | 0.00 | 0.00 | 76 | 1014.1 |
| 20260506165907 | 71 | 120 | 0.0 | 2.6 | 0.00 | 0.00 | 0.00 | 78 | 1014.2 |
| 20260506165405 | 70 | 111 | 0.9 | 0.9 | 0.00 | 0.00 | 0.00 | 76 | 1014.2 |
| 20260506164900 | 71 | 117 | 0.0 | 0.9 | 0.00 | 0.00 | 0.00 | 76 | 1014.4 |
| 20260506164356 | 71 | 120 | 0.0 | 0.9 | 0.00 | 0.00 | 0.00 | 76 | 1014.4 |
| 20260506163850 | 71 | 111 | 0.9 | 1.7 | 0.00 | 0.00 | 0.00 | 76 | 1014.6 |
| 20260506163343 | 71 | 128 | 0.0 | 1.7 | 0.00 | 0.00 | 0.00 | 77 | 1014.7 |
| 20260506162839 | 71 | 130 | 0.9 | 2.6 | 0.00 | 0.00 | 0.00 | 77 | 1014.4 |
| 20260506162337 | 71 | 158 | 0.9 | 1.7 | 0.00 | 0.00 | 0.00 | 77 | 1014.9 |
| 20260506161835 | 72 | 133 | 0.9 | 1.7 | 0.00 | 0.00 | 0.00 | 77 | 1014.6 |
| 20260506161332 | 71 | 119 | 0.0 | 0.9 | 0.00 | 0.00 | 0.00 | 76 | 1014.0 |
| 20260506160829 | 72 | 112 | 0.0 | 1.7 | 0.00 | 0.00 | 0.00 | 74 | 1014.6 |
| 20260506160325 | 73 | 132 | 0.9 | 1.7 | 0.00 | 0.00 | 0.00 | 74 | 1014.1 |
| 20260506155824 | 72 | 133 | 0.9 | 9.6 | 0.00 | 0.00 | 0.00 | 74 | 1014.3 |
| 20260506155320 | 72 | 121 | 0.9 | 2.6 | 0.00 | 0.00 | 0.00 | 74 | 1014.1 |
| 20260506153433 | 72 | 88 | 2.6 | 5.2 | 0.00 | 0.00 | 0.00 | 72 | 1014.0 |
| 20260506152931 | 73 | 133 | 0.9 | 5.2 | 0.00 | 0.00 | 0.00 | 73 | 1014.1 |
| 20260506152427 | 73 | 125 | 0.9 | 2.6 | 0.00 | 0.00 | 0.00 | 72 | 1014.1 |
| 20260506151926 | 73 | 72 | 3.5 | 5.2 | 0.00 | 0.00 | 0.00 | 72 | 1014.0 |
| 20260506151422 | 72 | 133 | 0.9 | 1.7 | 0.00 | 0.00 | 0.00 | 74 | 1014.0 |
| 20260506150920 | 71 | 175 | 1.7 | 4.3 | 0.00 | 0.00 | 0.00 | 75 | 1014.0 |
| 20260506150416 | 71 | 86 | 1.7 | 7.0 | 0.00 | 0.00 | 0.00 | 75 | 1014.1 |
| 20260506145913 | 71 | 136 | 0.9 | 1.7 | 0.00 | 0.00 | 0.00 | 76 | 1013.7 |
| 20260506145409 | 70 | 144 | 0.9 | 4.3 | 0.00 | 0.00 | 0.00 | 77 | 1013.8 |
| 20260506144907 | 70 | 109 | 0.0 | 0.9 | 0.00 | 0.00 | 0.00 | 77 | 1013.5 |
| 20260506144403 | 69 | 143 | 2.6 | 4.3 | 0.00 | 0.00 | 0.00 | 77 | 1013.5 |
| 20260506143902 | 69 | 119 | 0.0 | 1.7 | 0.00 | 0.00 | 0.00 | 78 | 1013.5 |
| 20260506143358 | 68 | 131 | 0.0 | 1.7 | 0.00 | 0.00 | 0.00 | 78 | 1013.5 |
| 20260506142857 | 68 | 117 | 0.0 | 1.7 | 0.00 | 0.00 | 0.00 | 79 | 1013.7 |
| 20260506142354 | 68 | 171 | 0.9 | 4.3 | 0.00 | 0.00 | 0.00 | 77 | 1013.6 |
| 20260506141852 | 68 | 104 | 0.9 | 0.9 | 0.00 | 0.00 | 0.00 | 78 | 1013.7 |
| 20260506141350 | 68 | 145 | 0.9 | 2.6 | 0.00 | 0.00 | 0.00 | 79 | 1013.5 |
| 20260506140848 | 68 | 116 | 0.9 | 1.7 | 0.00 | 0.00 | 0.00 | 77 | 1013.8 |
| 20260506140345 | 68 | 128 | 0.0 | 0.9 | 0.00 | 0.00 | 0.00 | 78 | 1014.0 |
| 20260506135842 | 67 | 122 | 0.0 | 1.7 | 0.00 | 0.00 | 0.00 | 78 | 1013.8 |
| 20260506135338 | 67 | 133 | 0.0 | 2.6 | 0.00 | 0.00 | 0.00 | 79 | 1013.9 |
| 20260506134834 | 68 | 127 | 0.9 | 1.7 | 0.00 | 0.00 | 0.00 | 78 | 1013.7 |
| 20260506134331 | 67 | 151 | 0.0 | 0.9 | 0.00 | 0.00 | 0.00 | 78 | 1013.9 |
| 20260506133828 | 66 | 127 | 0.0 | 0.0 | 0.00 | 0.00 | 0.00 | 80 | 1013.7 |
| 20260506133325 | 65 | 131 | 0.9 | 1.7 | 0.00 | 0.00 | 0.00 | 80 | 1013.6 |
| 20260506132822 | 65 | 119 | 0.0 | 0.9 | 0.00 | 0.00 | 0.00 | 81 | 1013.7 |
| 20260506132319 | 65 | 130 | 0.9 | 0.9 | 0.00 | 0.00 | 0.00 | 81 | 1013.7 |
| 20260506131817 | 65 | 83 | 1.7 | 2.6 | 0.00 | 0.00 | 0.00 | 81 | 1013.6 |
| 20260506131313 | 65 | 129 | 0.9 | 0.9 | 0.00 | 0.00 | 0.00 | 81 | 1013.7 |
| 20260506130810 | 64 | 125 | 0.9 | 0.9 | 0.00 | 0.00 | 0.00 | 82 | 1013.7 |
| 20260506130306 | 64 | 133 | 0.0 | 0.9 | 0.00 | 0.00 | 0.00 | 82 | 1013.8 |
| 20260506125805 | 63 | 140 | 0.9 | 0.9 | 0.00 | 0.00 | 0.00 | 83 | 1013.6 |
| 20260506125305 | 63 | 124 | 0.9 | 0.9 | 0.00 | 0.00 | 0.00 | 83 | 1013.7 |
| 20260506124801 | 63 | 127 | 0.0 | 0.9 | 0.00 | 0.00 | 0.00 | 83 | 1013.8 |
| 20260506124257 | 63 | 128 | 0.0 | 0.0 | 0.00 | 0.00 | 0.00 | 83 | 1013.9 |
| 20260506123755 | 62 | 133 | 0.9 | 1.7 | 0.00 | 0.00 | 0.00 | 83 | 1013.7 |
| 20260506123254 | 62 | 133 | 0.9 | 0.9 | 0.00 | 0.00 | 0.00 | 83 | 1013.7 |
| 20260506122750 | 62 | 134 | 0.0 | 0.9 | 0.00 | 0.00 | 0.00 | 84 | 1013.6 |
| 20260506122247 | 62 | 122 | 0.0 | 0.0 | 0.00 | 0.00 | 0.00 | 84 | 1014.0 |
| 20260506121745 | 62 | 126 | 0.9 | 0.9 | 0.00 | 0.00 | 0.00 | 84 | 1014.0 |
| 20260506121242 | 61 | 123 | 0.0 | 0.9 | 0.00 | 0.00 | 0.00 | 84 | 1014.2 |
| 20260506120739 | 62 | 120 | 0.9 | 0.9 | 0.00 | 0.00 | 0.00 | 85 | 1014.3 |
| 20260506120237 | 61 | 118 | 0.0 | 0.0 | 0.00 | 0.00 | 0.00 | 85 | 1014.3 |
| 20260506115734 | 61 | 111 | 0.9 | 0.9 | 0.00 | 0.00 | 0.00 | 84 | 1014.3 |
| 20260506115232 | 61 | 122 | 0.0 | 0.0 | 0.00 | 0.00 | 0.00 | 84 | 1014.3 |
| 20260506114730 | 61 | 123 | 0.0 | 0.0 | 0.00 | 0.00 | 0.00 | 84 | 1014.0 |
| 20260506114227 | 61 | 130 | 0.0 | 0.9 | 0.00 | 0.00 | 0.00 | 84 | 1014.0 |
| 20260506113726 | 61 | 118 | 0.0 | 0.0 | 0.00 | 0.00 | 0.00 | 84 | 1013.3 |
| 20260506113223 | 61 | 118 | 0.0 | 0.9 | 0.00 | 0.00 | 0.00 | 84 | 1013.5 |
| 20260506112719 | 61 | 120 | 0.9 | 1.7 | 0.00 | 0.00 | 0.00 | 84 | 1013.4 |
| 20260506112217 | 61 | 115 | 0.0 | 0.0 | 0.00 | 0.00 | 0.00 | 84 | 1013.6 |
| 20260506111714 | 60 | 125 | 0.0 | 0.9 | 0.00 | 0.00 | 0.00 | 85 | 1013.4 |
| 20260506111212 | 60 | 121 | 0.0 | 0.9 | 0.00 | 0.00 | 0.00 | 85 | 1013.3 |
| 20260506110709 | 61 | 118 | 0.0 | 0.9 | 0.00 | 0.00 | 0.00 | 84 | 1013.3 |
| 20260506110206 | 61 | 124 | 0.0 | 0.9 | 0.00 | 0.00 | 0.00 | 84 | 1013.3 |
| 20260506105703 | 61 | 119 | 0.0 | 1.7 | 0.00 | 0.00 | 0.00 | 83 | 1013.0 |
| 20260506105200 | 61 | 126 | 1.7 | 2.6 | 0.00 | 0.00 | 0.00 | 83 | 1013.0 |
| 20260506104658 | 61 | 121 | 0.0 | 0.0 | 0.00 | 0.00 | 0.00 | 83 | 1012.8 |
| 20260506104155 | 61 | 121 | 0.0 | 0.0 | 0.00 | 0.00 | 0.00 | 83 | 1012.5 |
| 20260506103652 | 60 | 120 | 0.0 | 0.9 | 0.00 | 0.00 | 0.00 | 84 | 1012.7 |
| 20260506103149 | 60 | 110 | 0.9 | 0.9 | 0.00 | 0.00 | 0.00 | 84 | 1012.5 |
| 20260506102647 | 61 | 120 | 0.0 | 0.0 | 0.00 | 0.00 | 0.00 | 83 | 1012.3 |
| 20260506102144 | 61 | 119 | 0.0 | 0.0 | 0.00 | 0.00 | 0.00 | 83 | 1012.4 |
| 20260506101641 | 61 | 122 | 0.0 | 0.0 | 0.00 | 0.00 | 0.00 | 82 | 1012.5 |
| 20260506101138 | 61 | 124 | 0.0 | 0.0 | 0.00 | 0.00 | 0.00 | 82 | 1012.2 |
| 20260506100636 | 61 | 126 | 0.0 | 0.9 | 0.00 | 0.00 | 0.00 | 82 | 1012.3 |
| 20260506100134 | 61 | 128 | 0.0 | 0.9 | 0.00 | 0.00 | 0.00 | 81 | 1012.6 |
| 20260506095632 | 61 | 126 | 0.0 | 0.9 | 0.00 | 0.00 | 0.00 | 81 | 1012.6 |
| 20260506095129 | 62 | 124 | 0.9 | 0.9 | 0.00 | 0.00 | 0.00 | 81 | 1012.6 |
| 20260506094626 | 61 | 122 | 0.0 | 0.0 | 0.00 | 0.00 | 0.00 | 81 | 1012.8 |
| 20260506094124 | 61 | 121 | 0.0 | 0.0 | 0.00 | 0.00 | 0.00 | 81 | 1012.9 |
| 20260506093622 | 62 | 123 | 0.0 | 0.9 | 0.00 | 0.00 | 0.00 | 81 | 1012.8 |
| 20260506093119 | 62 | 124 | 0.0 | 0.0 | 0.00 | 0.00 | 0.00 | 80 | 1012.8 |
| 20260506092617 | 62 | 123 | 0.0 | 0.9 | 0.00 | 0.00 | 0.00 | 80 | 1012.6 |
| 20260506092113 | 62 | 125 | 0.0 | 0.0 | 0.00 | 0.00 | 0.00 | 80 | 1012.8 |
| 20260506091612 | 62 | 126 | 0.0 | 0.9 | 0.00 | 0.00 | 0.00 | 81 | 1012.7 |
| 20260506091109 | 62 | 124 | 0.0 | 0.9 | 0.00 | 0.00 | 0.00 | 81 | 1012.8 |
| 20260506090607 | 62 | 121 | 0.0 | 0.9 | 0.00 | 0.00 | 0.00 | 81 | 1013.0 |
| 20260506085600 | 61 | 120 | 0.0 | 0.9 | 0.00 | 0.00 | 0.00 | 82 | 1012.9 |
| 20260506085056 | 61 | 124 | 0.9 | 0.9 | 0.00 | 0.00 | 0.00 | 82 | 1013.0 |
| 20260506084553 | 61 | 93 | 0.0 | 0.9 | 0.00 | 0.00 | 0.00 | 82 | 1013.4 |
| 20260506084049 | 61 | 122 | 0.0 | 0.9 | 0.00 | 0.00 | 0.00 | 81 | 1013.2 |
| 20260506083547 | 62 | 121 | 0.0 | 0.9 | 0.00 | 0.00 | 0.00 | 81 | 1013.2 |
| 20260506083044 | 62 | 118 | 0.0 | 0.9 | 0.00 | 0.00 | 0.00 | 81 | 1013.0 |
| 20260506082540 | 62 | 127 | 0.0 | 0.0 | 0.00 | 0.00 | 0.00 | 80 | 1013.5 |
| 20260506082036 | 62 | 129 | 0.0 | 0.0 | 0.00 | 0.00 | 0.00 | 80 | 1013.2 |
| 20260506081535 | 62 | 129 | 0.0 | 0.9 | 0.00 | 0.00 | 0.00 | 80 | 1013.5 |
| 20260506081032 | 62 | 130 | 0.0 | 0.0 | 0.00 | 0.00 | 0.00 | 80 | 1013.4 |
| 20260506080529 | 62 | 126 | 0.0 | 0.0 | 0.00 | 0.00 | 0.00 | 80 | 1013.6 |
| 20260506073513 | 62 | 129 | 0.9 | 0.9 | 0.00 | 0.00 | 0.00 | 80 | 1013.6 |
| 20260506073010 | 62 | 117 | 0.0 | 0.9 | 0.00 | 0.00 | 0.00 | 80 | 1013.3 |
| 20260506072507 | 62 | 117 | 0.0 | 0.9 | 0.00 | 0.00 | 0.00 | 80 | 1013.7 |
| 20260506072004 | 62 | 121 | 0.0 | 0.9 | 0.00 | 0.00 | 0.00 | 80 | 1013.7 |
| 20260506071502 | 61 | 113 | 0.0 | 0.0 | 0.00 | 0.00 | 0.00 | 81 | 1013.8 |
| 20260506070959 | 61 | 113 | 0.0 | 0.0 | 0.00 | 0.00 | 0.00 | 82 | 1013.6 |
| 20260506070456 | 61 | 112 | 0.0 | 0.9 | 0.00 | 0.00 | 0.00 | 81 | 1013.4 |
| 20260506062434 | 62 | 117 | 0.0 | 0.0 | 0.00 | 0.00 | 0.00 | 79 | 1013.7 |
| 20260506061929 | 62 | 114 | 0.0 | 0.0 | 0.00 | 0.00 | 0.00 | 79 | 1013.7 |
| 20260506061426 | 62 | 120 | 0.0 | 0.0 | 0.00 | 0.00 | 0.00 | 78 | 1013.8 |
| 20260506060924 | 62 | 120 | 0.0 | 0.9 | 0.00 | 0.00 | 0.00 | 78 | 1014.0 |
| 20260506060422 | 62 | 120 | 0.0 | 0.0 | 0.00 | 0.00 | 0.00 | 77 | 1013.6 |
| 20260506051354 | 64 | 128 | 0.0 | 0.9 | 0.00 | 0.00 | 0.00 | 73 | 1014.0 |
| 20260506050851 | 64 | 128 | 0.0 | 0.0 | 0.00 | 0.00 | 0.00 | 73 | 1013.7 |
| 20260506050349 | 64 | 135 | 0.0 | 0.9 | 0.00 | 0.00 | 0.00 | 73 | 1013.6 |
| 20260506044839 | 65 | 126 | 0.9 | 0.9 | 0.00 | 0.00 | 0.00 | 72 | 1014.0 |
| 20260506044337 | 65 | 151 | 1.7 | 1.7 | 0.00 | 0.00 | 0.00 | 72 | 1013.8 |
| 20260506043834 | 65 | 133 | 0.9 | 1.7 | 0.00 | 0.00 | 0.00 | 71 | 1013.8 |
| 20260506043331 | 65 | 135 | 0.0 | 0.9 | 0.00 | 0.00 | 0.00 | 71 | 1013.8 |
| 20260506042829 | 65 | 132 | 0.0 | 0.0 | 0.00 | 0.00 | 0.00 | 71 | 1013.8 |
| 20260506042328 | 65 | 133 | 0.0 | 0.9 | 0.00 | 0.00 | 0.00 | 70 | 1013.8 |
| 20260506041827 | 65 | 133 | 0.0 | 0.9 | 0.00 | 0.00 | 0.00 | 70 | 1013.6 |
| 20260506041323 | 65 | 133 | 0.9 | 0.9 | 0.00 | 0.00 | 0.00 | 69 | 1013.7 |
| 20260506040820 | 65 | 133 | 0.9 | 0.9 | 0.00 | 0.00 | 0.00 | 69 | 1013.8 |
| 20260506040318 | 66 | 133 | 0.9 | 0.9 | 0.00 | 0.00 | 0.00 | 69 | 1013.6 |
| 20260506035814 | 66 | 130 | 0.0 | 0.9 | 0.00 | 0.00 | 0.00 | 68 | 1013.4 |
| 20260506035311 | 66 | 129 | 0.0 | 0.9 | 0.00 | 0.00 | 0.00 | 68 | 1013.5 |
| 20260506034808 | 65 | 129 | 0.0 | 0.0 | 0.00 | 0.00 | 0.00 | 67 | 1013.9 |
| 20260506034305 | 66 | 129 | 0.0 | 0.9 | 0.00 | 0.00 | 0.00 | 67 | 1013.7 |
| 20260506033802 | 66 | 131 | 0.0 | 0.9 | 0.00 | 0.00 | 0.00 | 65 | 1013.7 |
| 20260506033259 | 66 | 129 | 0.9 | 1.7 | 0.00 | 0.00 | 0.00 | 64 | 1013.6 |
| 20260506032756 | 66 | 128 | 0.0 | 0.9 | 0.00 | 0.00 | 0.00 | 64 | 1013.6 |
| 20260506032253 | 66 | 128 | 0.9 | 0.9 | 0.00 | 0.00 | 0.00 | 63 | 1013.7 |
| 20260506031749 | 65 | 127 | 0.9 | 1.7 | 0.00 | 0.00 | 0.00 | 64 | 1013.2 |
| 20260506031247 | 62 | 122 | 0.0 | 0.0 | 0.00 | 0.00 | 0.00 | 68 | 1013.5 |
| 20260506030745 | 62 | 121 | 0.0 | 0.0 | 0.00 | 0.00 | 0.00 | 72 | 1013.3 |
| 20260506030243 | 62 | 121 | 0.0 | 0.0 | 0.00 | 0.00 | 0.00 | 71 | 1013.5 |
| 20260506025739 | 62 | 121 | 0.0 | 0.0 | 0.00 | 0.00 | 0.00 | 71 | 1013.3 |
| 20260506025235 | 62 | 121 | 0.0 | 0.0 | 0.00 | 0.00 | 0.00 | 71 | 1013.3 |
| 20260506024733 | 63 | 121 | 0.0 | 0.0 | 0.00 | 0.00 | 0.00 | 72 | 1013.2 |
| 20260506024229 | 63 | 121 | 0.0 | 0.0 | 0.00 | 0.00 | 0.00 | 72 | 1013.3 |
| 20260506023725 | 63 | 121 | 0.0 | 0.0 | 0.00 | 0.00 | 0.00 | 73 | 1013.4 |
| 20260506023223 | 63 | 121 | 0.0 | 0.0 | 0.00 | 0.00 | 0.00 | 70 | 1013.3 |
| 20260506022719 | 63 | 121 | 0.0 | 0.0 | 0.00 | 0.00 | 0.00 | 73 | 1013.3 |
| 20260506022217 | 63 | 121 | 0.0 | 0.0 | 0.00 | 0.00 | 0.00 | 71 | 1013.5 |
| 20260506021715 | 63 | 121 | 0.0 | 0.0 | 0.00 | 0.00 | 0.00 | 71 | 1013.4 |
| 20260506021212 | 63 | 121 | 0.0 | 0.0 | 0.00 | 0.00 | 0.00 | 71 | 1013.4 |
| 20260506020708 | 63 | 121 | 0.0 | 0.0 | 0.00 | 0.00 | 0.00 | 71 | 1013.2 |
| 20260506020206 | 63 | 121 | 0.0 | 0.0 | 0.00 | 0.00 | 0.00 | 72 | 1013.5 |
| 20260506015704 | 63 | 121 | 0.0 | 0.0 | 0.00 | 0.00 | 0.00 | 71 | 1013.5 |
| 20260506015201 | 63 | 121 | 0.0 | 0.0 | 0.00 | 0.00 | 0.00 | 71 | 1013.5 |
| 20260506014658 | 63 | 121 | 0.0 | 0.0 | 0.00 | 0.00 | 0.00 | 69 | 1013.3 |
| 20260506014154 | 63 | 121 | 0.0 | 0.0 | 0.00 | 0.00 | 0.00 | 71 | 1013.5 |
| 20260506013652 | 64 | 121 | 0.0 | 0.0 | 0.00 | 0.00 | 0.00 | 70 | 1013.5 |
| 20260506013149 | 64 | 121 | 0.0 | 0.0 | 0.00 | 0.00 | 0.00 | 68 | 1013.6 |
| 20260506012645 | 64 | 121 | 0.0 | 0.0 | 0.00 | 0.00 | 0.00 | 67 | 1013.4 |
| 20260506012142 | 65 | 121 | 0.0 | 0.0 | 0.00 | 0.00 | 0.00 | 68 | 1013.3 |
| 20260506011639 | 65 | 121 | 0.0 | 0.0 | 0.00 | 0.00 | 0.00 | 66 | 1013.2 |
| 20260506011135 | 66 | 121 | 0.0 | 0.0 | 0.00 | 0.00 | 0.00 | 63 | 1013.2 |
| 20260506010634 | 66 | 121 | 0.0 | 0.0 | 0.00 | 0.00 | 0.00 | 61 | 1013.3 |
| 20260506010131 | 67 | 121 | 0.0 | 0.0 | 0.00 | 0.00 | 0.00 | 61 | 1012.9 |
| 20260506005628 | 67 | 121 | 0.0 | 0.0 | 0.00 | 0.00 | 0.00 | 60 | 1013.0 |
| 20260506005124 | 68 | 121 | 0.0 | 0.0 | 0.00 | 0.00 | 0.00 | 59 | 1013.0 |
| 20260506004621 | 68 | 121 | 0.0 | 0.0 | 0.00 | 0.00 | 0.00 | 58 | 1013.2 |
| 20260506004118 | 68 | 121 | 0.0 | 0.0 | 0.00 | 0.00 | 0.00 | 58 | 1012.8 |
| 20260506003614 | 69 | 121 | 0.0 | 0.0 | 0.00 | 0.00 | 0.00 | 57 | 1013.0 |
| 20260506003110 | 69 | 121 | 0.0 | 0.0 | 0.00 | 0.00 | 0.00 | 56 | 1012.9 |
| 20260506002606 | 70 | 121 | 0.0 | 0.0 | 0.00 | 0.00 | 0.00 | 55 | 1012.7 |
| 20260506002102 | 70 | 121 | 0.0 | 0.0 | 0.00 | 0.00 | 0.00 | 54 | 1012.7 |
| 20260506001559 | 71 | 121 | 0.0 | 0.0 | 0.00 | 0.00 | 0.00 | 53 | 1012.7 |
| 20260506001056 | 71 | 121 | 0.0 | 0.0 | 0.00 | 0.00 | 0.00 | 52 | 1012.7 |
| 20260506000554 | 72 | 121 | 0.0 | 0.0 | 0.00 | 0.00 | 0.00 | 51 | 1012.6 |
| 20260506000051 | 73 | 121 | 0.0 | 0.0 | 0.00 | 0.00 | 0.00 | 50 | 1012.8 |
| 20260505235549 | 73 | 121 | 0.0 | 0.0 | 0.00 | 0.00 | 0.00 | 50 | 1012.6 |
| 20260505235046 | 74 | 121 | 0.0 | 0.0 | 0.00 | 0.00 | 0.00 | 48 | 1012.7 |
| 20260505234543 | 75 | 122 | 0.0 | 0.0 | 0.00 | 0.00 | 0.00 | 47 | 1012.6 |
| 20260505234039 | 75 | 121 | 0.0 | 0.0 | 0.00 | 0.00 | 0.00 | 46 | 1012.6 |
| 20260505233537 | 75 | 122 | 0.0 | 0.0 | 0.00 | 0.00 | 0.00 | 45 | 1012.5 |
| 20260505233034 | 75 | 119 | 0.9 | 0.9 | 0.00 | 0.00 | 0.00 | 46 | 1012.7 |
| 20260505232532 | 76 | 126 | 0.0 | 0.9 | 0.00 | 0.00 | 0.00 | 44 | 1012.6 |
| 20260505232029 | 76 | 124 | 0.9 | 0.9 | 0.00 | 0.00 | 0.00 | 44 | 1012.4 |
| 20260505231526 | 76 | 134 | 0.0 | 1.7 | 0.00 | 0.00 | 0.00 | 44 | 1012.5 |
| 20260505231025 | 76 | 127 | 0.0 | 1.7 | 0.00 | 0.00 | 0.00 | 43 | 1012.3 |
| 20260505230521 | 77 | 128 | 0.0 | 0.9 | 0.00 | 0.00 | 0.00 | 43 | 1012.5 |
| 20260505230018 | 77 | 118 | 1.7 | 2.6 | 0.00 | 0.00 | 0.00 | 42 | 1012.5 |
| 20260505225515 | 77 | 119 | 0.0 | 0.9 | 0.00 | 0.00 | 0.00 | 43 | 1012.7 |
| 20260505225011 | 77 | 116 | 0.0 | 0.9 | 0.00 | 0.00 | 0.00 | 42 | 1012.8 |
| 20260505224508 | 77 | 162 | 1.7 | 1.7 | 0.00 | 0.00 | 0.00 | 42 | 1012.8 |
| 20260505224005 | 77 | 128 | 0.0 | 0.9 | 0.00 | 0.00 | 0.00 | 43 | 1012.8 |
| 20260505223502 | 77 | 100 | 0.9 | 1.7 | 0.00 | 0.00 | 0.00 | 42 | 1012.9 |
| 20260505222958 | 78 | 119 | 0.0 | 0.9 | 0.00 | 0.00 | 0.00 | 41 | 1012.7 |
| 20260505222455 | 78 | 115 | 0.9 | 4.3 | 0.00 | 0.00 | 0.00 | 42 | 1012.8 |
| 20260505221950 | 78 | 142 | 0.9 | 2.6 | 0.00 | 0.00 | 0.00 | 43 | 1012.6 |
| 20260505221448 | 78 | 130 | 0.0 | 1.7 | 0.00 | 0.00 | 0.00 | 42 | 1012.4 |
| 20260505220945 | 78 | 130 | 0.9 | 1.7 | 0.00 | 0.00 | 0.00 | 42 | 1012.8 |
| 20260505220442 | 78 | 138 | 0.9 | 1.7 | 0.00 | 0.00 | 0.00 | 42 | 1012.7 |
| 20260505215940 | 78 | 124 | 0.9 | 1.7 | 0.00 | 0.00 | 0.00 | 40 | 1012.8 |
| 20260505215438 | 78 | 73 | 0.9 | 1.7 | 0.00 | 0.00 | 0.00 | 41 | 1012.7 |
| 20260505214935 | 77 | 120 | 0.0 | 0.9 | 0.00 | 0.00 | 0.00 | 43 | 1012.8 |
| 20260505214433 | 78 | 131 | 0.0 | 1.7 | 0.00 | 0.00 | 0.00 | 42 | 1012.9 |
| 20260505213930 | 78 | 148 | 0.9 | 1.7 | 0.00 | 0.00 | 0.00 | 41 | 1012.9 |
| 20260505213427 | 78 | 128 | 1.7 | 5.2 | 0.00 | 0.00 | 0.00 | 44 | 1012.8 |
| 20260505212923 | 78 | 134 | 0.0 | 0.9 | 0.00 | 0.00 | 0.00 | 43 | 1012.9 |
| 20260505212421 | 78 | 122 | 0.0 | 2.6 | 0.00 | 0.00 | 0.00 | 43 | 1013.0 |
| 20260505211917 | 77 | 119 | 0.0 | 1.7 | 0.00 | 0.00 | 0.00 | 42 | 1012.9 |
| 20260505211415 | 77 | 160 | 0.9 | 1.7 | 0.00 | 0.00 | 0.00 | 43 | 1013.0 |
| 20260505210910 | 77 | 122 | 0.0 | 0.9 | 0.00 | 0.00 | 0.00 | 43 | 1013.3 |
| 20260505210408 | 78 | 126 | 0.9 | 4.3 | 0.00 | 0.00 | 0.00 | 42 | 1013.0 |
| 20260505205905 | 78 | 135 | 0.9 | 0.9 | 0.00 | 0.00 | 0.00 | 42 | 1013.0 |
| 20260505205403 | 79 | 139 | 0.9 | 4.3 | 0.00 | 0.00 | 0.00 | 42 | 1013.3 |
| 20260505204900 | 79 | 167 | 1.7 | 4.3 | 0.00 | 0.00 | 0.00 | 42 | 1013.4 |
| 20260505204357 | 79 | 133 | 0.9 | 1.7 | 0.00 | 0.00 | 0.00 | 41 | 1013.3 |
| 20260505203855 | 79 | 156 | 0.9 | 2.6 | 0.00 | 0.00 | 0.00 | 43 | 1013.3 |
| 20260505203351 | 80 | 151 | 0.9 | 4.3 | 0.00 | 0.00 | 0.00 | 42 | 1013.4 |
| 20260505202847 | 80 | 133 | 0.9 | 2.6 | 0.00 | 0.00 | 0.00 | 41 | 1013.5 |
| 20260505202343 | 80 | 116 | 0.0 | 2.6 | 0.00 | 0.00 | 0.00 | 41 | 1013.5 |
| 20260505201840 | 79 | 67 | 1.7 | 2.6 | 0.00 | 0.00 | 0.00 | 44 | 1013.6 |
| 20260505201337 | 79 | 125 | 0.0 | 0.9 | 0.00 | 0.00 | 0.00 | 42 | 1013.5 |
| 20260505200836 | 79 | 119 | 0.9 | 1.7 | 0.00 | 0.00 | 0.00 | 43 | 1013.9 |
| 20260505200332 | 79 | 154 | 0.9 | 1.7 | 0.00 | 0.00 | 0.00 | 41 | 1013.8 |
| 20260505195828 | 80 | 166 | 0.9 | 1.7 | 0.00 | 0.00 | 0.00 | 41 | 1014.0 |
| 20260505195325 | 80 | 144 | 1.7 | 4.3 | 0.00 | 0.00 | 0.00 | 41 | 1013.8 |
| 20260505194822 | 79 | 139 | 0.9 | 1.7 | 0.00 | 0.00 | 0.00 | 41 | 1013.7 |
| 20260505194320 | 80 | 154 | 1.7 | 4.3 | 0.00 | 0.00 | 0.00 | 41 | 1013.9 |
| 20260505193814 | 79 | 131 | 0.9 | 0.9 | 0.00 | 0.00 | 0.00 | 41 | 1013.8 |
| 20260505193313 | 78 | 136 | 0.9 | 5.2 | 0.00 | 0.00 | 0.00 | 41 | 1014.1 |
| 20260505192810 | 80 | 142 | 0.9 | 1.7 | 0.00 | 0.00 | 0.00 | 38 | 1014.2 |
| 20260505192310 | 80 | 117 | 0.0 | 5.2 | 0.00 | 0.00 | 0.00 | 42 | 1014.2 |
| 20260505191806 | 80 | 137 | 0.9 | 5.2 | 0.00 | 0.00 | 0.00 | 39 | 1014.5 |
| 20260505191304 | 79 | 114 | 2.6 | 2.6 | 0.00 | 0.00 | 0.00 | 41 | 1014.4 |
| 20260505190800 | 79 | 129 | 0.0 | 2.6 | 0.00 | 0.00 | 0.00 | 43 | 1014.3 |
| 20260505190255 | 79 | 129 | 0.9 | 4.3 | 0.00 | 0.00 | 0.00 | 42 | 1014.4 |
| 20260505185752 | 80 | 84 | 2.6 | 4.3 | 0.00 | 0.00 | 0.00 | 39 | 1014.7 |
| 20260505185248 | 80 | 88 | 1.7 | 2.6 | 0.00 | 0.00 | 0.00 | 38 | 1014.6 |
| 20260505184744 | 81 | 102 | 0.9 | 2.6 | 0.00 | 0.00 | 0.00 | 38 | 1014.7 |
| 20260505184242 | 81 | 120 | 1.7 | 9.6 | 0.00 | 0.00 | 0.00 | 40 | 1014.7 |
| 20260505183738 | 79 | 141 | 0.9 | 1.7 | 0.00 | 0.00 | 0.00 | 41 | 1014.8 |
| 20260505183236 | 80 | 342 | 2.6 | 8.7 | 0.00 | 0.00 | 0.00 | 41 | 1014.9 |
| 20260505182732 | 81 | 107 | 2.6 | 4.3 | 0.00 | 0.00 | 0.00 | 41 | 1015.0 |
| 20260505182229 | 80 | 38 | 2.6 | 2.6 | 0.00 | 0.00 | 0.00 | 41 | 1015.1 |
| 20260505181725 | 79 | 116 | 0.0 | 6.1 | 0.00 | 0.00 | 0.00 | 45 | 1015.3 |
| 20260505181224 | 80 | 126 | 0.9 | 7.0 | 0.00 | 0.00 | 0.00 | 42 | 1015.1 |
| 20260505180720 | 80 | 132 | 1.7 | 5.2 | 0.00 | 0.00 | 0.00 | 42 | 1015.3 |
| 20260505180217 | 80 | 115 | 2.6 | 4.3 | 0.00 | 0.00 | 0.00 | 42 | 1015.3 |
| 20260505175713 | 79 | 145 | 0.9 | 7.0 | 0.00 | 0.00 | 0.00 | 46 | 1015.3 |
| 20260505175209 | 78 | 286 | 2.6 | 5.2 | 0.00 | 0.00 | 0.00 | 44 | 1015.4 |
| 20260505174706 | 78 | 124 | 0.0 | 1.7 | 0.00 | 0.00 | 0.00 | 44 | 1015.6 |
| 20260505174203 | 78 | 128 | 0.9 | 5.2 | 0.00 | 0.00 | 0.00 | 45 | 1015.4 |
| 20260505173659 | 80 | 139 | 0.9 | 1.7 | 0.00 | 0.00 | 0.00 | 43 | 1015.6 |
| 20260505173156 | 79 | 107 | 0.9 | 4.3 | 0.00 | 0.00 | 0.00 | 45 | 1015.4 |
| 20260505172653 | 79 | 214 | 2.6 | 4.3 | 0.00 | 0.00 | 0.00 | 43 | 1015.4 |
| 20260505172150 | 78 | 140 | 0.9 | 1.7 | 0.00 | 0.00 | 0.00 | 42 | 1015.4 |
| 20260505171649 | 78 | 143 | 1.7 | 2.6 | 0.00 | 0.00 | 0.00 | 44 | 1015.4 |